STARLINK-1727 (46335 NORAD) Tracking and Keplerian Element Data

This shows tracking and keplerian element data for the satellite.

Feedback or suggestion? Click here.




ElementValue
Catalog46335
NameSTARLINK-1727
Epoch Orbit184
Epoch Day336.91667824
Epoch Year2020
RAAN12.7495
Inclination53.0035
Eccentricity0.0001394
Argument of Perigee76.2398
Mean Anonmoly66.0755
Mean Motion15.05591237
Decay Rate-0.00010515
L11 46335U 20062L 20336.91667824 -.00010515 00000-0 -70336-3 0 9994
L22 46335 53.0035 12.7495 0001394 76.2398 66.0755 15.05591237 1849

Live tracking and technical data element details for STARLINK-1727 (NORAD 46335). STARLINK-1727 can be tracked NOW for your location showing map with azimuth and elevation plus other details from your city location.

Track the satellite on the map from your city or location and see movement details for azimuth, elevation, latitude, longitude, range, height, and movement on the map or in text.







IsCatalogInMostPopularTable: catalog: 46335, numindb: 28
Update: records affected: 1



GetName: 46335 STARLINK-1727

Hit Count: updated at: Wed, 02 Dec 2020 18:02:31 GMT